Vorticity
5 6 6 7 5 4 5 6 5 4 5 6 7 6 6 6 7 7 6 6 6 4 4 5 5 4 4 5 4 6 8 7 7 7 7 8 8 6 5 8 9 10 10
6 6 8 6 5 5 4 5 6 6 5 5 5 4 6 7 6 5 4 4 4 4 6 5 4 4 4 6 9 11 11 12 9 8 6 7 8 7 5 6 9 9 12
7 7 6 7 6 5 5 5 5 5 4 5 6 5 4 4 6 8 9 9 8 7 5 4 5 6 9 10 11 15 14 10 8 7 9 9 9 7 7 6 7 8 9
9 11 7 7 6 6 6 8 6 8 8 6 5 5 6 5 5 5 5 4 4 4 5 5 8 9 8 9 7 3 0 2 5 4 6 9 14 12 8 8 6 8 10
8 9 10 11 6 6 4 5 6 5 6 8 9 7 6 6 5 5 5 6 7 8 9 9 9 6 3 5 6 9 10 10 8 8 10 11 9 10 10 7 7 7 8
7 10 8 9 12 8 5 5 5 4 4 4 4 5 6 7 7 7 7 8 8 8 8 7 8 7 5 9 8 8 4 7 7 8 11 10 11 7 14 10 9 10 10
10 3 12 8 9 11 9 8 6 4 4 4 4 5 6 6 7 7 7 8 7 7 7 7 6 7 6 9 7 6 8 7 4 9 9 9 4 9 15 13 8 10 10
12 17 7 8 10 8 9 9 10 10 8 7 7 7 7 6 6 5 6 6 6 6 7 7 7 9 10 9 10 11 6 8 8 8 6 2 5 9 9 17 10 8 10
15 7 14 10 9 9 10 9 9 8 9 10 7 7 7 8 7 6 6 6 6 6 6 7 6 8 8 5 7 5 5 7 4 8 9 5 8 3 10 21 16 8 5
9 20 10 8 11 9 8 9 9 9 7 8 10 8 8 7 6 6 5 6 7 7 7 6 6 6 6 5 5 6 4 5 6 7 8 7 4 5 8 6 15 14 8
19 12 20 13 8 9 11 6 6 8 7 7 8 7 7 7 7 7 7 7 7 8 8 7 6 6 5 6 5 6 5 5 5 6 6 7 10 7 5 3 3 18 5
6 18 16 14 14 11 11 8 10 5 6 8 8 8 7 7 7 7 8 8 7 5 5 6 7 6 6 6 7 6 6 5 7 6 7 7 7 6 8 11 12 9 18
2 -4 9 24 14 18 10 14 9 7 8 7 6 6 7 6 6 6 7 7 5 6 6 6 6 5 6 6 6 7 6 6 7 4 11 12 8 6 10 15 6 14 10
9 13 6 2 16 16 7 9 13 16 12 8 6 6 7 7 6 6 6 6 5 6 6 6 6 7 7 7 7 6 7 8 9 8 12 11 13 12 18 9 6 5 6
14 10 14 11 -3 22 12 15 12 9 9 10 13 13 12 7 4 4 5 5 6 8 7 7 7 7 6 8 8 7 7 8 10 8 11 10 13 9 8 11 14 7 -3
12 17 6 6 16 11 18 25 16 1 11 13 12 11 8 9 13 11 11 11 11 11 11 10 9 9 8 8 7 8 8 9 7 8 12 11 9 7 5 12 16 4 8
14 17 21 8 -3 7 -2 7 4 12 19 11 7 9 11 11 13 11 8 7 7 6 9 8 7 8 8 9 11 10 6 10 12 6 14 13 21 18 12 1 -1 8 13
10 13 24 11 13 2 12 11 6 11 9 13 19 17 15 15 10 11 27 12 8 14 9 10 12 11 13 11 9 12 12 6 4 19 10 11 10 7 10 18 18 11 3
2 8 7 16 22 25 15 -7 1 1 4 1 3 8 11 10 15 7 -12 -7 8 23 14 12 12 10 13 10 11 14 8 13 14 17 4 14 10 11 11 3 14 22 24
9 14 8 6 10 7 15 18 29 15 6 13 9 -2 13 10 14 34 6 13 0 9 9 14 16 8 4 12 14 10 20 7 19 7 12 9 8 16 12 6 5 8 6
4 3 4 9 -2 9 9 15 5 2 16 28 21 14 31 5 -4 13 -2 -3 -1 -7 5 2 2 10 17 13 13 17 -1 22 8 9 11 9 11 17 13 6 12 19 18
7 9 10 6 6 14 20 5 16 20 11 15 12 15 13 16 22 1 15 9 23 22 14 22 20 15 6 1 3 3 17 8 8 10 7 1 10 14 10 13 6 6 6
41 18 8 16 6 9 5 -1 -4 10 11 3 22 -4 20 20 16 21 18 22 20 18 10 5 13 6 16 11 -8 21 5 8 7 5 8 12 -1 10 12 26 20 24 33
17 36 36 8 12 2 -8 -6 -5 4 9 10 6 15 16 4 8 -15 -6 -6 -7 10 -9 1 9 7 8 3 -1 10 17 4 -0 10 9 7 7 3 8 10 13 9 8
7 18 21 37 37 23 17 14 12 19 13 9 11 10 8 7 6 13 16 18 11 5 -3 12 -16 12 1 5 23 -0 16 12 -19 22 -10 8 9 10 8 10 5 2 0
6 -1 13 18 16 14 14 16 13 21 2 -9 17 8 4 7 8 9 7 10 13 10 13 16 16 17 12 19 8 -8 11 -17 1 23 -6 11 -3 10 6 8 9 6 7
Height
5695 5705 5713 5719 5724 5731 5738 5745 5750 5755 5760 5765 5771 5775 5779 5783 5788 5791 5795 5799 5802 5806 5810 5813 5816 5818 5821 5822 5825 5827 5829 5831 5833 5834 5835 5837 5840 5842 5844 5846 5847 5849 5850
5683 5692 5701 5707 5713 5719 5727 5735 5740 5745 5751 5756 5761 5765 5769 5774 5778 5782 5786 5791 5795 5798 5802 5805 5808 5810 5813 5815 5817 5819 5821 5823 5825 5826 5827 5831 5833 5835 5836 5838 5839 5841 5843
5669 5678 5687 5695 5701 5707 5715 5724 5729 5735 5741 5746 5751 5756 5761 5765 5771 5776 5780 5784 5788 5790 5793 5796 5798 5801 5804 5806 5808 5811 5813 5814 5816 5818 5820 5823 5825 5825 5828 5830 5831 5833 5834
5653 5663 5672 5680 5689 5695 5702 5712 5718 5725 5731 5736 5742 5747 5752 5757 5762 5765 5769 5773 5778 5782 5784 5786 5789 5793 5795 5798 5800 5802 5804 5806 5809 5810 5812 5814 5816 5817 5820 5821 5822 5824 5825
5638 5648 5657 5667 5676 5684 5690 5698 5706 5712 5719 5726 5732 5738 5743 5748 5752 5757 5761 5765 5769 5773 5776 5778 5781 5785 5788 5790 5792 5795 5796 5797 5800 5802 5803 5805 5807 5809 5811 5811 5812 5814 5816
5623 5633 5643 5652 5661 5670 5678 5686 5694 5701 5707 5714 5720 5727 5732 5738 5742 5747 5751 5756 5760 5763 5767 5770 5773 5776 5778 5782 5783 5785 5788 5789 5791 5793 5795 5796 5798 5800 5801 5803 5804 5806 5809
5608 5619 5629 5638 5647 5656 5665 5673 5682 5689 5696 5703 5709 5716 5721 5727 5732 5736 5741 5745 5750 5755 5758 5761 5764 5767 5769 5772 5774 5777 5779 5780 5781 5784 5786 5788 5790 5791 5792 5794 5795 5797 5799
5593 5603 5614 5623 5633 5642 5651 5659 5668 5676 5683 5690 5698 5704 5710 5716 5721 5725 5730 5735 5740 5744 5748 5751 5754 5758 5760 5763 5765 5768 5770 5771 5773 5774 5777 5779 5781 5782 5783 5784 5786 5788 5790
5580 5589 5599 5610 5620 5628 5637 5646 5654 5662 5670 5677 5685 5692 5698 5704 5711 5715 5720 5725 5730 5734 5738 5741 5744 5748 5751 5753 5755 5758 5761 5763 5765 5766 5767 5769 5771 5773 5774 5774 5776 5778 5781
5569 5577 5586 5596 5607 5616 5624 5633 5641 5649 5657 5664 5672 5679 5686 5692 5699 5705 5710 5715 5720 5724 5728 5731 5734 5738 5741 5743 5746 5748 5751 5753 5755 5757 5758 5759 5761 5762 5764 5765 5766 5768 5770
5557 5567 5575 5584 5594 5603 5612 5621 5628 5636 5644 5651 5659 5667 5674 5680 5687 5694 5699 5704 5709 5713 5717 5720 5724 5728 5731 5733 5736 5738 5740 5743 5744 5746 5748 5749 5750 5752 5753 5755 5756 5757 5759
5547 5554 5563 5571 5580 5589 5599 5608 5616 5624 5631 5639 5646 5653 5661 5668 5675 5682 5688 5692 5697 5701 5706 5709 5713 5716 5719 5722 5725 5727 5729 5732 5733 5735 5737 5738 5739 5740 5742 5743 5745 5745 5746
5537 5544 5552 5560 5568 5576 5585 5594 5603 5611 5619 5626 5633 5640 5649 5656 5663 5668 5674 5680 5685 5689 5694 5698 5701 5704 5708 5711 5713 5716 5718 5721 5722 5723 5726 5726 5727 5728 5730 5731 5733 5734 5733
5526 5535 5543 5550 5558 5566 5573 5580 5589 5598 5606 5613 5620 5628 5636 5643 5649 5656 5661 5666 5671 5677 5682 5686 5689 5693 5696 5699 5702 5705 5707 5709 5711 5713 5714 5714 5715 5717 5718 5719 5721 5721 5722
5514 5524 5532 5540 5548 5556 5564 5570 5577 5585 5593 5601 5608 5616 5624 5630 5636 5642 5648 5653 5659 5665 5669 5673 5677 5680 5684 5687 5690 5693 5695 5696 5698 5701 5702 5703 5704 5705 5707 5708 5709 5709 5709
5503 5512 5521 5529 5538 5546 5553 5560 5567 5574 5581 5589 5597 5604 5611 5617 5623 5630 5635 5641 5647 5652 5656 5659 5664 5668 5671 5674 5677 5679 5682 5684 5687 5689 5690 5690 5692 5692 5693 5694 5695 5696 5697
5492 5501 5510 5519 5527 5535 5542 5550 5557 5564 5571 5578 5585 5592 5599 5606 5612 5617 5623 5628 5634 5639 5644 5648 5652 5656 5659 5662 5665 5667 5670 5672 5675 5676 5677 5678 5680 5680 5681 5682 5682 5683 5683
5482 5490 5499 5508 5516 5523 5532 5539 5547 5554 5561 5568 5574 5581 5588 5594 5600 5606 5611 5616 5621 5626 5631 5636 5640 5644 5647 5650 5653 5655 5658 5660 5662 5665 5666 5666 5667 5668 5668 5668 5668 5669 5669
5473 5481 5490 5498 5505 5513 5521 5528 5536 5544 5550 5558 5565 5571 5578 5584 5591 5597 5600 5605 5609 5613 5618 5623 5627 5632 5635 5638 5641 5644 5646 5648 5651 5653 5653 5654 5655 5656 5656 5656 5656 5656 5656
5462 5471 5480 5487 5495 5503 5510 5517 5525 5533 5540 5547 5554 5561 5569 5575 5580 5585 5591 5594 5598 5602 5607 5611 5615 5619 5623 5626 5629 5632 5634 5637 5639 5640 5641 5642 5643 5643 5644 5644 5644 5645 5645
5453 5462 5470 5478 5485 5492 5500 5507 5514 5522 5529 5536 5543 5549 5556 5564 5568 5573 5578 5582 5586 5590 5596 5600 5603 5607 5611 5615 5617 5621 5624 5626 5628 5630 5631 5631 5631 5632 5633 5633 5633 5634 5633
5444 5452 5460 5468 5476 5482 5490 5497 5505 5511 5518 5525 5531 5538 5544 5550 5556 5561 5566 5571 5576 5580 5585 5588 5592 5596 5600 5604 5608 5611 5613 5615 5618 5619 5620 5621 5622 5623 5622 5622 5623 5624 5625
5433 5441 5449 5458 5465 5473 5480 5487 5494 5501 5507 5513 5520 5527 5533 5539 5544 5550 5556 5561 5563 5568 5573 5577 5582 5586 5589 5593 5595 5600 5602 5605 5607 5608 5609 5610 5611 5613 5614 5615 5615 5615 5616
5426 5431 5437 5445 5454 5462 5469 5475 5483 5490 5496 5502 5509 5515 5521 5528 5534 5539 5544 5549 5552 5558 5562 5567 5571 5575 5579 5582 5586 5588 5591 5594 5596 5598 5600 5601 5602 5602 5602 5603 5603 5605 5606
5419 5424 5429 5434 5441 5449 5456 5464 5471 5478 5484 5491 5497 5503 5509 5514 5520 5526 5531 5536 5541 5545 5549 5553 5558 5563 5567 5571 5574 5577 5580 5582 5585 5588 5590 5591 5592 5593 5593 5594 5595 5595 5596
5411 5416 5421 5425 5431 5437 5443 5450 5458 5465 5472 5478 5484 5491 5497 5502 5508 5513 5518 5523 5528 5532 5537 5542 5546 5550 5554 5558 5562 5565 5568 5570 5573 5575 5578 5581 5582 5583 5584 5584 5585 5587 5588